When you browse on this site, cookies collect data to enhance your experience and personalize the content and advertising you see.
Visit our Privacy Policy to learn more. By continuing to use the site, you agree to this use of cookies and data.
  • In United Kingdom
  • List of Countries
  • For 7 days
  • Water Temperature
  • Satellite Maps
  • Weather Map
  • Weather Widgets
  • user-avatar
    Login

    Hourly Weather Bosnicy

    Today, 23 February, Saturday

    Time Temperature Precipitation Wind Pressure Humidity
    00:00 -9°C° 0 mm 1 mps 769 mmHg 81%
    01:00 -10°C° 0 mm 2 mps 768 mmHg 80%
    02:00 -9°C° 0 mm 2 mps 768 mmHg 76%
    03:00 -9°C° 0 mm 3 mps 768 mmHg 72%
    04:00 -9°C° 0 mm 3 mps 767 mmHg 67%
    05:00 -9°C° 0 mm 4 mps 766 mmHg 63%
    06:00 -9°C° 0.1 mm 4 mps 766 mmHg 68%
    07:00 -8°C° 0.1 mm 4 mps 765 mmHg 73%
    08:00 -8°C° 0.1 mm 5 mps 764 mmHg 78%
    09:00 -7°C° 0.5 mm 5 mps 764 mmHg 81%
    10:00 -7°C° 0.5 mm 5 mps 763 mmHg 83%
    11:00 -6°C° 0.5 mm 6 mps 762 mmHg 85%
    12:00 -5°C° 0.1 mm 6 mps 762 mmHg 86%
    13:00 -4°C° 0.1 mm 5 mps 761 mmHg 86%
    14:00 -2°C° 0.1 mm 5 mps 761 mmHg 86%
    15:00 -2°C° 0.1 mm 5 mps 760 mmHg 88%
    16:00 -1°C° 0.1 mm 5 mps 760 mmHg 89%
    17:00 -1°C° 0.1 mm 4 mps 760 mmHg 90%
    18:00 -1°C° 0 mm 4 mps 760 mmHg 91%
    19:00 -1°C° 0 mm 4 mps 760 mmHg 92%
    20:00 -1°C° 0 mm 4 mps 760 mmHg 93%
    21:00 -1°C° 0 mm 4 mps 760 mmHg 93%
    22:00 0°C° 0 mm 3 mps 760 mmHg 94%
    23:00 0°C° 0 mm 3 mps 760 mmHg 94%

    Tomorrow, 24 February, Sunday

    Time Temperature Precipitation Wind Pressure Humidity
    00:00 0°C° 0 mm 3 mps 760 mmHg 95%
    01:00 0°C° 0 mm 3 mps 760 mmHg 95%
    02:00 +1°C° 0 mm 2 mps 760 mmHg 96%
    03:00 +1°C° 0 mm 2 mps 759 mmHg 96%
    04:00 +1°C° 0 mm 2 mps 759 mmHg 96%
    05:00 +1°C° 0 mm 2 mps 759 mmHg 96%
    06:00 +1°C° 0 mm 2 mps 759 mmHg 96%
    07:00 0°C° 0 mm 3 mps 759 mmHg 96%
    08:00 0°C° 0 mm 3 mps 759 mmHg 96%
    09:00 0°C° 0 mm 3 mps 759 mmHg 96%
    10:00 +1°C° 0 mm 3 mps 758 mmHg 95%
    11:00 +1°C° 0 mm 3 mps 758 mmHg 95%
    12:00 +1°C° 0 mm 3 mps 758 mmHg 94%
    13:00 +2°C° 0 mm 3 mps 757 mmHg 93%
    14:00 +2°C° 0 mm 3 mps 757 mmHg 93%
    15:00 +1°C° 0 mm 4 mps 757 mmHg 93%
    16:00 +1°C° 0 mm 4 mps 756 mmHg 93%
    17:00 0°C° 0 mm 5 mps 756 mmHg 93%
    18:00 0°C° 0.1 mm 5 mps 755 mmHg 92%
    19:00 0°C° 0.1 mm 5 mps 755 mmHg 92%
    20:00 0°C° 0.1 mm 5 mps 755 mmHg 91%
    21:00 0°C° 0 mm 4 mps 755 mmHg 91%
    22:00 0°C° 0 mm 4 mps 755 mmHg 90%
    23:00 0°C° 0 mm 4 mps 755 mmHg 90%

    Day after tomorrow, 25 February, Monday

    Time Temperature Precipitation Wind Pressure Humidity
    00:00 0°C° 0 mm 4 mps 755 mmHg 87%
    01:00 -1°C° 0 mm 4 mps 755 mmHg 85%
    02:00 -2°C° 0 mm 4 mps 755 mmHg 82%
    03:00 -2°C° 0 mm 4 mps 755 mmHg 82%
    04:00 -2°C° 0 mm 4 mps 754 mmHg 82%
    05:00 -2°C° 0 mm 4 mps 754 mmHg 82%
    06:00 -2°C° 0 mm 5 mps 754 mmHg 81%
    07:00 -2°C° 0 mm 5 mps 753 mmHg 81%
    08:00 -1°C° 0 mm 5 mps 753 mmHg 81%
    09:00 -1°C° 0 mm 5 mps 753 mmHg 78%
    10:00 0°C° 0 mm 5 mps 752 mmHg 75%
    11:00 +1°C° 0 mm 6 mps 752 mmHg 72%
    12:00 +1°C° 0 mm 5 mps 752 mmHg 72%
    13:00 +1°C° 0 mm 5 mps 751 mmHg 72%
    14:00 +1°C° 0 mm 5 mps 751 mmHg 73%
    15:00 +1°C° 0 mm 5 mps 751 mmHg 74%
    16:00 +1°C° 0 mm 4 mps 751 mmHg 75%
    17:00 0°C° 0 mm 4 mps 751 mmHg 76%
    18:00 0°C° 0 mm 4 mps 752 mmHg 78%
    19:00 -1°C° 0 mm 4 mps 752 mmHg 81%
    20:00 -1°C° 0 mm 4 mps 752 mmHg 83%
    21:00 -2°C° 0 mm 4 mps 752 mmHg 85%
    22:00 -2°C° 0 mm 4 mps 752 mmHg 87%
    23:00 -2°C° 0 mm 4 mps 751 mmHg 89%

    26 February, Tuesday

    Time Temperature Precipitation Wind Pressure Humidity
    00:00 -2°C° 0 mm 4 mps 751 mmHg 89%
    01:00 -2°C° 0 mm 4 mps 751 mmHg 90%
    02:00 -2°C° 0 mm 4 mps 750 mmHg 91%
    03:00 -2°C° 0.2 mm 4 mps 749 mmHg 90%
    04:00 -2°C° 0.2 mm 4 mps 749 mmHg 89%
    05:00 -1°C° 0.2 mm 4 mps 748 mmHg 88%
    06:00 -1°C° 0.1 mm 4 mps 748 mmHg 88%
    07:00 -1°C° 0.1 mm 4 mps 747 mmHg 88%
    08:00 0°C° 0.1 mm 5 mps 747 mmHg 87%
    09:00 0°C° 0.1 mm 5 mps 747 mmHg 87%
    10:00 0°C° 0.1 mm 5 mps 747 mmHg 86%
    11:00 +1°C° 0.1 mm 5 mps 747 mmHg 85%
    12:00 +1°C° 0 mm 4 mps 748 mmHg 85%
    13:00 +1°C° 0 mm 4 mps 748 mmHg 85%
    14:00 +1°C° 0 mm 4 mps 749 mmHg 85%
    15:00 0°C° 0 mm 4 mps 750 mmHg 86%
    16:00 0°C° 0 mm 4 mps 750 mmHg 87%
    17:00 +1°C° 0 mm 3 mps 751 mmHg 88%
    18:00 0°C° 0 mm 3 mps 751 mmHg 88%
    19:00 0°C° 0 mm 3 mps 752 mmHg 89%
    20:00 -1°C° 0 mm 3 mps 753 mmHg 89%
    21:00 -1°C° 0 mm 2 mps 753 mmHg 91%
    22:00 -2°C° 0 mm 2 mps 753 mmHg 93%
    23:00 -1°C° 0 mm 1 mps 753 mmHg 96%

    27 February, Wednesday

    Time Temperature Precipitation Wind Pressure Humidity
    00:00 -1°C° 0 mm 1 mps 753 mmHg 96%
    01:00 -1°C° 0 mm 1 mps 753 mmHg 96%
    02:00 -1°C° 0 mm 1 mps 753 mmHg 97%
    03:00 -1°C° 0 mm 1 mps 752 mmHg 96%
    04:00 -1°C° 0 mm 1 mps 751 mmHg 96%
    05:00 0°C° 0 mm 1 mps 751 mmHg 96%
    06:00 -2°C° 0 mm 2 mps 750 mmHg 95%
    07:00 -1°C° 0 mm 3 mps 749 mmHg 94%
    08:00 -1°C° 0 mm 3 mps 748 mmHg 93%
    09:00 0°C° 0 mm 3 mps 747 mmHg 89%
    10:00 -1°C° 0 mm 4 mps 746 mmHg 85%
    11:00 0°C° 0 mm 4 mps 745 mmHg 82%
    12:00 0°C° 0 mm 4 mps 745 mmHg 80%
    13:00 +1°C° 0 mm 4 mps 744 mmHg 78%
    14:00 +3°C° 0 mm 4 mps 743 mmHg 77%
    15:00 +2°C° 0 mm 3 mps 742 mmHg 80%
    16:00 +2°C° 0 mm 3 mps 741 mmHg 82%
    17:00 +1°C° 0 mm 3 mps 740 mmHg 85%
    18:00 +1°C° 0 mm 3 mps 739 mmHg 84%
    19:00 0°C° 0 mm 4 mps 738 mmHg 82%
    20:00 0°C° 0 mm 4 mps 737 mmHg 81%
    21:00 0°C° 0.1 mm 4 mps 736 mmHg 80%
    22:00 0°C° 0.1 mm 4 mps 735 mmHg 79%
    23:00 -1°C° 0.1 mm 4 mps 735 mmHg 79%

    28 February, Thursday

    Time Temperature Precipitation Wind Pressure Humidity
    00:00 0°C° 0.1 mm 4 mps 734 mmHg 78%
    01:00 0°C° 0.1 mm 4 mps 733 mmHg 77%
    02:00 0°C° 0.1 mm 4 mps 732 mmHg 77%
    03:00 0°C° 0.2 mm 5 mps 731 mmHg 79%
    04:00 0°C° 0.2 mm 5 mps 731 mmHg 81%
    05:00 0°C° 0.2 mm 5 mps 730 mmHg 83%
    06:00 0°C° 0.3 mm 5 mps 730 mmHg 84%
    07:00 0°C° 0.3 mm 5 mps 731 mmHg 85%
    08:00 0°C° 0.3 mm 5 mps 731 mmHg 86%
    09:00 0°C° 0.1 mm 5 mps 731 mmHg 85%
    10:00 0°C° 0.1 mm 5 mps 732 mmHg 84%
    11:00 0°C° 0.1 mm 5 mps 732 mmHg 83%
    12:00 0°C° 0 mm 5 mps 733 mmHg 82%
    13:00 0°C° 0 mm 5 mps 734 mmHg 81%
    14:00 0°C° 0 mm 5 mps 734 mmHg 79%
    15:00 0°C° 0.1 mm 5 mps 735 mmHg 80%
    16:00 -1°C° 0.1 mm 5 mps 735 mmHg 80%
    17:00 -1°C° 0.1 mm 5 mps 736 mmHg 80%
    18:00 -2°C° 0 mm 5 mps 737 mmHg 78%
    19:00 -4°C° 0 mm 5 mps 737 mmHg 76%
    20:00 -4°C° 0 mm 5 mps 738 mmHg 74%
    21:00 -5°C° 0 mm 5 mps 738 mmHg 72%
    22:00 -6°C° 0 mm 5 mps 739 mmHg 70%
    23:00 -6°C° 0 mm 5 mps 739 mmHg 68%
    Show more